When you browse on this site, cookies collect data to enhance your experience and personalize the content and advertising you see.
Visit our Privacy Policy to learn more. By continuing to use the site, you agree to this use of cookies and data.
  • în România
  • Lista ţărilor
  • Pe 7 zile
  • Temperatura apei
  • Hartă satelitară
  • Meteo pe hartă
  • Widget-uri
  • user-avatar
    Intrare

    Meteo pe oră la Lievin

    Astăzi, 19 Iunie, Miercuri

    Timp Temperatura Precipitaţii Vânt Presiune Umiditate
    00:00 +18°C° 0 mm 2 m/s 749 mmHg 77%
    01:00 +18°C° 0.1 mm 2 m/s 748 mmHg 80%
    02:00 +18°C° 0.1 mm 2 m/s 748 mmHg 83%
    03:00 +18°C° 0.1 mm 1 m/s 747 mmHg 86%
    04:00 +18°C° 0.3 mm 2 m/s 747 mmHg 87%
    05:00 +18°C° 0.3 mm 3 m/s 747 mmHg 88%
    06:00 +19°C° 0.3 mm 5 m/s 747 mmHg 88%
    07:00 +20°C° 0.1 mm 5 m/s 747 mmHg 81%
    08:00 +22°C° 0.1 mm 6 m/s 748 mmHg 73%
    09:00 +23°C° 0.1 mm 6 m/s 748 mmHg 65%
    10:00 +23°C° 0.1 mm 6 m/s 748 mmHg 66%
    11:00 +24°C° 0.1 mm 6 m/s 748 mmHg 66%
    12:00 +24°C° 0.1 mm 7 m/s 748 mmHg 66%
    13:00 +23°C° 0.4 mm 7 m/s 748 mmHg 69%
    14:00 +22°C° 0.4 mm 7 m/s 748 mmHg 72%
    15:00 +22°C° 0.4 mm 7 m/s 748 mmHg 75%
    16:00 +21°C° 0 mm 7 m/s 748 mmHg 77%
    17:00 +20°C° 0 mm 6 m/s 748 mmHg 79%
    18:00 +19°C° 0 mm 5 m/s 748 mmHg 80%
    19:00 +17°C° 0 mm 5 m/s 749 mmHg 83%
    20:00 +15°C° 0 mm 5 m/s 749 mmHg 86%
    21:00 +14°C° 0 mm 4 m/s 750 mmHg 89%
    22:00 +14°C° 0 mm 4 m/s 750 mmHg 90%
    23:00 +13°C° 0 mm 4 m/s 750 mmHg 92%

    Mâine, 20 Iunie, Joi

    Timp Temperatura Precipitaţii Vânt Presiune Umiditate
    00:00 +13°C° 0 mm 4 m/s 750 mmHg 93%
    01:00 +13°C° 0 mm 4 m/s 750 mmHg 92%
    02:00 +13°C° 0 mm 4 m/s 751 mmHg 92%
    03:00 +13°C° 0 mm 4 m/s 751 mmHg 91%
    04:00 +13°C° 0 mm 4 m/s 751 mmHg 88%
    05:00 +13°C° 0 mm 4 m/s 751 mmHg 86%
    06:00 +14°C° 0 mm 5 m/s 752 mmHg 83%
    07:00 +15°C° 0 mm 5 m/s 752 mmHg 77%
    08:00 +16°C° 0 mm 5 m/s 752 mmHg 71%
    09:00 +17°C° 0 mm 5 m/s 753 mmHg 65%
    10:00 +17°C° 0 mm 5 m/s 753 mmHg 63%
    11:00 +19°C° 0 mm 5 m/s 753 mmHg 62%
    12:00 +19°C° 0 mm 5 m/s 754 mmHg 60%
    13:00 +19°C° 0 mm 5 m/s 754 mmHg 60%
    14:00 +19°C° 0 mm 5 m/s 754 mmHg 60%
    15:00 +19°C° 0 mm 5 m/s 754 mmHg 60%
    16:00 +17°C° 0 mm 5 m/s 754 mmHg 64%
    17:00 +17°C° 0 mm 5 m/s 754 mmHg 67%
    18:00 +17°C° 0 mm 4 m/s 754 mmHg 70%
    19:00 +14°C° 0 mm 4 m/s 755 mmHg 76%
    20:00 +13°C° 0 mm 3 m/s 755 mmHg 81%
    21:00 +11°C° 0 mm 3 m/s 755 mmHg 87%
    22:00 +11°C° 0 mm 3 m/s 755 mmHg 88%
    23:00 +10°C° 0 mm 3 m/s 756 mmHg 90%

    Poimâine, 21 Iunie, Vineri

    Timp Temperatura Precipitaţii Vânt Presiune Umiditate
    00:00 +10°C° 0 mm 3 m/s 756 mmHg 91%
    01:00 +10°C° 0 mm 3 m/s 756 mmHg 92%
    02:00 +10°C° 0 mm 3 m/s 756 mmHg 92%
    03:00 +9°C° 0 mm 3 m/s 756 mmHg 93%
    04:00 +10°C° 0 mm 3 m/s 756 mmHg 91%
    05:00 +11°C° 0 mm 3 m/s 757 mmHg 89%
    06:00 +12°C° 0 mm 3 m/s 757 mmHg 87%
    07:00 +14°C° 0 mm 3 m/s 757 mmHg 81%
    08:00 +16°C° 0 mm 3 m/s 757 mmHg 74%
    09:00 +18°C° 0 mm 2 m/s 758 mmHg 68%
    10:00 +18°C° 0.1 mm 2 m/s 758 mmHg 65%
    11:00 +19°C° 0.1 mm 2 m/s 758 mmHg 62%
    12:00 +19°C° 0.1 mm 2 m/s 758 mmHg 59%
    13:00 +19°C° 0 mm 3 m/s 758 mmHg 60%
    14:00 +19°C° 0 mm 3 m/s 758 mmHg 60%
    15:00 +19°C° 0 mm 3 m/s 758 mmHg 61%
    16:00 +19°C° 0 mm 3 m/s 758 mmHg 64%
    17:00 +18°C° 0 mm 3 m/s 758 mmHg 66%
    18:00 +18°C° 0 mm 3 m/s 758 mmHg 69%
    19:00 +16°C° 0 mm 3 m/s 758 mmHg 73%
    20:00 +13°C° 0 mm 3 m/s 758 mmHg 77%
    21:00 +12°C° 0 mm 2 m/s 759 mmHg 80%
    22:00 +12°C° 0 mm 2 m/s 759 mmHg 80%
    23:00 +10°C° 0 mm 2 m/s 759 mmHg 80%

    22 Iunie, Sâmbătă

    Timp Temperatura Precipitaţii Vânt Presiune Umiditate
    00:00 +10°C° 0 mm 2 m/s 759 mmHg 79%
    01:00 +10°C° 0 mm 2 m/s 759 mmHg 79%
    02:00 +10°C° 0 mm 2 m/s 758 mmHg 78%
    03:00 +10°C° 0 mm 2 m/s 758 mmHg 77%
    04:00 +11°C° 0 mm 1 m/s 758 mmHg 83%
    05:00 +12°C° 0 mm 1 m/s 758 mmHg 80%
    06:00 +13°C° 0 mm 1 m/s 758 mmHg 77%
    07:00 +14°C° 0 mm 1 m/s 759 mmHg 72%
    08:00 +15°C° 0 mm 2 m/s 759 mmHg 66%
    09:00 +17°C° 0 mm 2 m/s 759 mmHg 60%
    10:00 +18°C° 0 mm 2 m/s 759 mmHg 56%
    11:00 +19°C° 0 mm 2 m/s 759 mmHg 53%
    12:00 +20°C° 0 mm 3 m/s 758 mmHg 49%
    13:00 +20°C° 0 mm 2 m/s 758 mmHg 49%
    14:00 +21°C° 0 mm 2 m/s 758 mmHg 48%
    15:00 +21°C° 0 mm 2 m/s 758 mmHg 47%
    16:00 +20°C° 0 mm 2 m/s 758 mmHg 52%
    17:00 +20°C° 0 mm 2 m/s 758 mmHg 58%
    18:00 +19°C° 0 mm 2 m/s 758 mmHg 63%
    19:00 +18°C° 0 mm 3 m/s 758 mmHg 68%
    20:00 +16°C° 0 mm 3 m/s 758 mmHg 73%
    21:00 +13°C° 0 mm 3 m/s 758 mmHg 77%
    22:00 +12°C° 0 mm 3 m/s 758 mmHg 78%
    23:00 +12°C° 0 mm 3 m/s 758 mmHg 79%

    23 Iunie, Duminică

    Timp Temperatura Precipitaţii Vânt Presiune Umiditate
    00:00 +12°C° 0 mm 2 m/s 758 mmHg 80%
    01:00 +12°C° 0 mm 2 m/s 758 mmHg 82%
    02:00 +12°C° 0 mm 2 m/s 758 mmHg 84%
    03:00 +12°C° 0 mm 2 m/s 758 mmHg 86%
    04:00 +13°C° 0 mm 2 m/s 758 mmHg 84%
    05:00 +13°C° 0 mm 2 m/s 758 mmHg 82%
    06:00 +13°C° 0 mm 3 m/s 758 mmHg 80%
    07:00 +16°C° 0 mm 3 m/s 758 mmHg 76%
    08:00 +18°C° 0 mm 3 m/s 758 mmHg 72%
    09:00 +19°C° 0 mm 3 m/s 758 mmHg 69%
    10:00 +20°C° 0 mm 4 m/s 758 mmHg 66%
    11:00 +21°C° 0 mm 4 m/s 758 mmHg 63%
    12:00 +22°C° 0 mm 5 m/s 757 mmHg 60%
    13:00 +23°C° 0 mm 5 m/s 757 mmHg 60%
    14:00 +23°C° 0 mm 5 m/s 757 mmHg 59%
    15:00 +23°C° 0 mm 5 m/s 757 mmHg 58%
    16:00 +23°C° 0 mm 5 m/s 756 mmHg 62%
    17:00 +22°C° 0 mm 4 m/s 756 mmHg 66%
    18:00 +22°C° 0 mm 4 m/s 756 mmHg 70%
    19:00 +21°C° 0 mm 4 m/s 756 mmHg 73%
    20:00 +20°C° 0 mm 4 m/s 756 mmHg 77%
    21:00 +19°C° 0 mm 4 m/s 756 mmHg 80%
    22:00 +18°C° 0 mm 4 m/s 756 mmHg 82%
    23:00 +18°C° 0 mm 4 m/s 756 mmHg 84%

    24 Iunie, Luni

    Timp Temperatura Precipitaţii Vânt Presiune Umiditate
    00:00 +17°C° 0 mm 4 m/s 756 mmHg 87%
    01:00 +17°C° 0 mm 4 m/s 756 mmHg 87%
    02:00 +17°C° 0 mm 4 m/s 755 mmHg 88%
    03:00 +16°C° 0 mm 3 m/s 755 mmHg 89%
    04:00 +17°C° 0 mm 4 m/s 755 mmHg 87%
    05:00 +17°C° 0 mm 4 m/s 755 mmHg 86%
    06:00 +18°C° 0 mm 4 m/s 755 mmHg 84%
    07:00 +19°C° 0 mm 5 m/s 755 mmHg 81%
    08:00 +21°C° 0 mm 5 m/s 755 mmHg 77%
    09:00 +22°C° 0 mm 5 m/s 755 mmHg 74%
    10:00 +24°C° 0 mm 6 m/s 755 mmHg 70%
    11:00 +27°C° 0 mm 6 m/s 755 mmHg 67%
    12:00 +28°C° 0 mm 6 m/s 755 mmHg 63%
    13:00 +29°C° 0 mm 6 m/s 754 mmHg 63%
    14:00 +30°C° 0 mm 6 m/s 754 mmHg 62%
    15:00 +30°C° 0 mm 6 m/s 754 mmHg 62%
    16:00 +29°C° 0 mm 5 m/s 754 mmHg 65%
    17:00 +29°C° 0 mm 4 m/s 754 mmHg 69%
    18:00 +28°C° 0 mm 3 m/s 754 mmHg 73%
    19:00 +27°C° 0 mm 3 m/s 754 mmHg 76%
    20:00 +26°C° 0 mm 3 m/s 755 mmHg 79%
    21:00 +23°C° 0 mm 4 m/s 755 mmHg 82%
    22:00 +24°C° 0 mm 3 m/s 755 mmHg 83%
    23:00 +22°C° 0 mm 3 m/s 755 mmHg 84%
    Arată mai mult